User: anonymous   Login
Location: Unspecified
(0.0000°N, 0.0000°E)
Time: 19:19:38
(UTC+00:00)
Language:

GALILEO 10 (206) - Orbit

View from above orbital plane
View from above orbital plane
View from above satellite
View from above satellite

Ground track
Ground track

The orbit data is extracted from the following two-line orbital elements,

1 40890U 15045B   18138.17758579 -.00000033  00000-0  00000+0 0  9992
2 40890  56.7623 302.9848 0001870  67.0746 292.9146  1.70475001 16715
Epoch (UTC): 18 May 2018 04:15:43
Eccentricity: 0.0001870
inclination: 56.7623°
perigee height: 23216 km
apogee height: 23227 km
right ascension of ascending node: 302.9848°
argument of perigee: 67.0746°
revolutions per day: 1.70475001
mean anomaly at epoch: 292.9146°
orbit number at epoch: 1671

The dashed part of the orbit path shows where the satellite is in the earth's shadow,  

DLR